Albuquerque, NM

3:46 AM MDT on September 26, 2017 (GMT -0600)
Albuquerque International Sunport

Weather History for KABQ - March, 2013

Change the Weather History Date:

Monday, March 18, 2013

  Actual Average Record
Temperature  
Mean Temperature 53 °F 48 °F  
Max Temperature 68 °F 61 °F 80 °F (1907)
Min Temperature 37 °F 36 °F 16 °F (1917)
Degree Days  
Heating Degree Days 12 17  
Month to date heating degree days 242 330  
Since 1 July heating degree days 3440 3633  
Cooling Degree Days 0 0  
Month to date cooling degree days 0 0  
Year to date cooling degree days 0 0  
Growing Degree Days 2 (Base 50)    
Moisture  
Dew Point 4 °F    
Average Humidity 17    
Maximum Humidity 27    
Minimum Humidity 7    
Precipitation  
Precipitation 0.00 in 0.02 in 0.54 in (2003)
Month to date precipitation 0.17 0.32  
Year to date precipitation 0.52 1.18  
Snow  
Snow 0.00 in - - ()
Month to date snowfall T  
Since 1 July snowfall 3.5  
Snow Depth 0.00 in    
Sea Level Pressure  
Sea Level Pressure 29.86 in    
Wind  
Wind Speed 7 mph (NW)    
Max Wind Speed 24 mph    
Max Gust Speed 32 mph    
Visibility 10 miles    
Events      
T = Trace of Precipitation, MM = Missing Value Source: NWS Daily Summary

Daily Weather History Graph

Daily Weather History Graph

Search for Another Location

Airport or City:

Trip Planner

Search our weather history database for the weather conditions in past years. The results will help you decide how hot, cold, wet, or windy it might be!

Date:

Astronomy

Mar. 18, 2013 Rise Set
Actual Time 7:12 AM MDT 7:16 PM MDT
Civil Twilight 6:47 AM MDT 7:42 PM MDT
Nautical Twilight 6:17 AM MDT 8:11 PM MDT
Astronomical Twilight 5:48 AM MDT 8:41 PM MDT
Moon 11:27 AM MDT (3/18) 1:05 AM MDT (3/18)
Length of Visible Light 12h 54m
Length of Day
12h 04m
Waxing Crescent, 41% of the Moon is Illuminated
Mar 18
Waxing Crescent
Mar 19
First Quarter
Mar 27
Full
Apr 2
Last Quarter
Apr 10
New

Hourly Weather History & Observations

Time (MDT) Temp. Windchill Dew Point Humidity Pressure Visibility Wind Dir Wind Speed Gust Speed Precip Events Conditions
12:52 AM 51.1 °F - 1.0 °F 13% 29.79 in 10.0 mi North 4.6 mph - N/A   Clear
1:52 AM 48.9 °F - 1.0 °F 14% 29.81 in 10.0 mi Calm Calm - N/A   Clear
2:52 AM 48.9 °F - 6.1 °F 18% 29.81 in 10.0 mi WSW 3.5 mph - N/A   Clear
3:52 AM 48.0 °F - 7.0 °F 19% 29.80 in 10.0 mi West 4.6 mph - N/A   Clear
4:52 AM 39.0 °F 36.8 °F 6.1 °F 26% 29.83 in 10.0 mi SSE 3.5 mph - N/A   Clear
5:52 AM 39.0 °F 34.0 °F 7.0 °F 27% 29.83 in 10.0 mi ESE 6.9 mph - N/A   Clear
6:52 AM 37.9 °F 34.4 °F 6.1 °F 27% 29.87 in 10.0 mi SSE 4.6 mph - N/A   Partly Cloudy
7:52 AM 39.0 °F 36.8 °F 5.0 °F 24% 29.91 in 10.0 mi SE 3.5 mph - N/A   Partly Cloudy
8:52 AM 46.9 °F - 3.9 °F 17% 29.91 in 10.0 mi SSE 6.9 mph - N/A   Partly Cloudy
9:52 AM 50.0 °F - 8.1 °F 18% 29.91 in 10.0 mi SSW 4.6 mph - N/A   Partly Cloudy
10:52 AM 54.0 °F - 7.0 °F 15% 29.91 in 10.0 mi West 4.6 mph - N/A   Partly Cloudy
11:52 AM 57.9 °F - 5.0 °F 12% 29.90 in 10.0 mi Variable 3.5 mph - N/A   Scattered Clouds
12:52 PM 61.0 °F - 3.9 °F 10% 29.87 in 10.0 mi North 5.8 mph - N/A   Scattered Clouds
1:52 PM 64.0 °F - 3.9 °F 9% 29.83 in 10.0 mi Calm Calm - N/A   Partly Cloudy
2:52 PM 66.9 °F - -0.9 °F 7% 29.79 in 10.0 mi West 12.7 mph 21.9 mph N/A   Partly Cloudy
3:52 PM 68.0 °F - 1.0 °F 7% 29.79 in 10.0 mi NW 15.0 mph 21.9 mph N/A   Clear
4:52 PM 68.0 °F - 1.9 °F 7% 29.81 in 10.0 mi NW 12.7 mph 19.6 mph N/A   Clear
5:52 PM 66.0 °F - 3.0 °F 8% 29.83 in 10.0 mi NNW 16.1 mph 26.5 mph N/A   Partly Cloudy
6:52 PM 62.1 °F - 3.9 °F 10% 29.87 in 10.0 mi NNW 13.8 mph 25.3 mph N/A   Scattered Clouds
7:52 PM 60.1 °F - 3.9 °F 11% 29.89 in 10.0 mi North 9.2 mph - N/A   Scattered Clouds
8:52 PM 57.9 °F - 3.9 °F 11% 29.90 in 10.0 mi NNW 9.2 mph - N/A   Partly Cloudy
9:52 PM 55.9 °F - 3.9 °F 12% 29.91 in 10.0 mi NNW 4.6 mph - N/A   Partly Cloudy
10:52 PM 53.6 °F - 5.0 °F 14% 30.03 in 10.0 mi NNE 9.2 mph - N/A   Scattered Clouds
11:52 PM 53.1 °F - 1.9 °F 12% 29.90 in 10.0 mi North 3.5 mph - N/A   Mostly Cloudy